NOAA 16 DEB, 42394

Orbit data source: Space-Track

NOAA 16 DEB, 42394 is space debris in SSO originally from a launch on Thu, 21 Sep 2000 UTC launched from the Air Force Western Test Range (AFWTR). Debris objects in space refer to the collection of defunct objects orbiting the Earth. Examples of debris include non-operational satellites, rocket bodies, and fragments generated from explosions, collisions, or faulty payload assembly.

Loading next visibility...
Identifier
42394, 2000-055SN
Orbit
SSO
Country
Flag of USUS
Related business
Manufacturer
Unknown
Mission
Spacecraft
Bus & Motor
Unknown
Mass
Unknown
Launch date (UTC)
2000-09-21 (26 years ago)
Launch vehicle
Unknown
Launch site
Air Force Western Test Range (AFWTR)
Object type
Payload
Rocket body
Debris
Shape & HBR
Unknown shape, 0.1 m
Radar Cross Section
Medium (>0.1 m² and <1 m²)

Expand to show TLE details & history
Last TLE update: 3 days ago

TLE from 3 days ago
0 NOAA 16 DEB
1 42394U 00055SN  26170.07911654  .00005858  00000-0  12532-2 0  9992
2 42394  98.9698  31.5289 0034694  81.1893 279.3230 14.58809598535889
Epoch: 2026-06-19T01:53Z
TLE epoch observation values (Epoch: 2026-06-19T01:53:55.669Z)
Latitude
-0.00002°
Longitude
95.7337°
Altitude
696.085 km
Speed
7.51 km/s
True Right ascension
02h 06m 06s
True Declination
0° 00' 00"
Sunlit
Object was in daylight at epoch
Visualization orbit readout
Latitude
Unknown
Longitude
Unknown
Altitude
Unknown
Speed
Unknown
Apparent Right ascension
Unknown
Apparent Declination
Unknown
Sunlit
N/A
Visualization observer readout
Local Sidereal Time
23:27:10
Azimuth
Unknown
Elevation
Unknown
Doppler factor
Unknown
Orbital elements
Apogee altitude
718.677 km
Perigee altitude
669.603 km
Semi-major axis
7,072.277 km
Eccentricity
0.00347
Inclination
98.9698°
RAAN
31.5289°
Arg. of periapsis
81.1893°
True anomaly
278.93041°
Mean anomaly
279.323°
Eccentric anomaly
279.12673°
Mean motion
3.64926 °/min
Orbital period
98.65 mins
BSTAR
0.0012532
Loading maneuver chart data...
Computing Atmospheric mass density...
Loading historical data...
Loading historical data...
Loading historical data...
Loading historical data...
Loading historical data...
Loading historical data...
Loading historical data...

Documentation

Showing up to 5 results
|